Home   Weather   Little Rock   Past weeks

Flag for USA Past Weather in Little Rock, Arkansas, USA — Yesterday and Last 2 Weeks

Now
75 °F

Passing clouds.


Feels Like: 77 °F
Forecast: 56 / 72 °F
Wind: 10 mph from South

Location: Adams Field

Current Time: Apr 25, 2017 at 9:13:54 pm

Latest Report: Apr 25, 2017 at 7:53 pm


Visibility: 10 mi

Pressure: 29.54 "Hg

Humidity: 60%

Dew Point: 60 °F

Location of Little RockLocation

Past Weather in Little Rock — Graph

°F

Little Rock Temperature Yesterday

Maximum temperature yesterday: 76 °F (at 3:53 pm)
Minimum temperature yesterday: 46 °F (at 3:53 am)
Average temperature yesterday: 61 °F

High & Low Weather Summary for the Past Weeks

 TemperatureHumidityPressure
High82 °F (Apr 14, 2:53 pm)100% (Apr 10, 6:05 pm)30.34 "Hg (Apr 10, 6:05 pm)
Low46 °F (Apr 24, 3:53 am)25% (Apr 24, 11:53 am)29.53 "Hg (Apr 25, 6:53 pm)
Average66 °F80%30.04 "Hg
* Reported Apr 10 6:05 pm — Apr 25 6:53 pm, Little Rock, Weather by CustomWeather, © 2017

Note: Actual official high and low records may vary slightly from our data, if they occured in-between our weather recording intervals... More about our weather records

Advertising

Little Rock Weather History for the Previous 24 Hours

Scroll right to see more
 ConditionsComfort  
Time TempWeatherWind HumidityBarometerVisibility
6:53 pm
Tue, Apr 25
78 °FScattered clouds.10 mph54%29.53 "Hg10 mi
5:53 pm80 °FScattered clouds.13 mph52%29.54 "Hg10 mi
4:53 pm81 °FPassing clouds.16 mph47%29.55 "Hg10 mi
3:53 pm81 °FScattered clouds.15 mph47%29.56 "Hg10 mi
2:53 pm79 °FScattered clouds.17 mph48%29.58 "Hg10 mi
1:53 pm79 °FPassing clouds.16 mph45%29.61 "Hg10 mi
12:53 pm77 °FPassing clouds.15 mph45%29.65 "Hg10 mi
11:53 am74 °FPassing clouds.17 mph52%29.67 "Hg10 mi
10:53 am71 °FPassing clouds.20 mph55%29.68 "Hg10 mi
9:53 am69 °FPassing clouds.13 mph59%29.70 "Hg10 mi
8:53 am64 °FPassing clouds.8 mph68%29.71 "Hg10 mi
7:53 am57 °FPassing clouds.8 mph81%29.71 "Hg10 mi
6:53 am52 °FScattered clouds.No wind83%29.72 "Hg10 mi
5:53 am51 °FPassing clouds.3 mph86%29.70 "Hg10 mi
4:53 am51 °FClear.6 mph86%29.70 "Hg10 mi
3:53 am53 °FClear.No wind83%29.71 "Hg10 mi
2:53 am53 °FClear.No wind83%29.72 "Hg10 mi
1:53 am52 °FClear.No wind83%29.74 "Hg10 mi
12:53 am55 °FClear.6 mph77%29.75 "Hg10 mi
11:53 pm
Mon, Apr 24
55 °FPassing clouds.7 mph83%29.74 "Hg10 mi
10:53 pm57 °FPassing clouds.6 mph78%29.75 "Hg10 mi
9:53 pm59 °FPassing clouds.7 mph69%29.74 "Hg10 mi
Weather by CustomWeather, © 2017

See weather overviewHow to use our weather pages